Change the Weather History Date:

Sunday, September 8, 2013

  Actual Average (KMHR) Record (KMHR)
Temperature  
Mean Temperature 78 °F -  
Max Temperature 98 °F 85 °F 102 °F (2013)
Min Temperature 59 °F 56 °F 46 °F (2002)
Cooling Degree Days 14    
Growing Degree Days 28 (Base 50)    
Moisture  
Dew Point 44 °F    
Average Humidity 32    
Maximum Humidity 72    
Minimum Humidity 10    
Precipitation  
Precipitation 0.00 in - - ()
Sea Level Pressure  
Sea Level Pressure 29.79 in    
Wind  
Wind Speed 5 mph (NNW)    
Max Wind Speed 12 mph    
Max Gust Speed 16 mph    
Visibility 10 miles    
Events      
Averages and records for this station are not official NWS values.
T = Trace of Precipitation, MM = Missing Value Source: NWS Daily Summary

Daily Weather History Graph

Daily Weather History Graph

Search for Another Location

Airport or City:

Trip Planner

Search our weather history database for the weather conditions in past years. The results will help you decide how hot, cold, wet, or windy it might be!

Date:

Astronomy

Sep. 08, 2013 Rise Set
Actual Time 6:41 AM PDT 7:24 PM PDT
Civil Twilight 6:14 AM PDT 7:51 PM PDT
Nautical Twilight 5:42 AM PDT 8:22 PM PDT
Astronomical Twilight 5:09 AM PDT 8:55 PM PDT
Moon 10:01 AM PDT (9/8) 9:06 PM PDT (9/8)
Length of Visible Light 13h 36m
Length of Day
12h 43m
Waxing Crescent, 12% of the Moon is Illuminated
Sep 8
Waxing Crescent
Sep 12
First Quarter
Sep 19
Full
Sep 26
Last Quarter
Oct 4
New

Hourly Weather History & Observations

Time (PDT) Temp. Dew Point Humidity Pressure Visibility Wind Dir Wind Speed Gust Speed Precip Events Conditions
12:10 AM 73.4 °F 50.0 °F 44% 29.82 in 10.0 mi East 4.6 mph - N/A   Clear
12:30 AM 73.4 °F 50.0 °F 44% 29.82 in 10.0 mi East 3.5 mph - N/A   Clear
12:50 AM 73.4 °F 50.0 °F 44% 29.82 in 10.0 mi ESE 6.9 mph - N/A   Clear
1:10 AM 73.4 °F 50.0 °F 44% 29.82 in 10.0 mi SE 4.6 mph - N/A   Clear
1:30 AM 71.6 °F 50.0 °F 46% 29.83 in 10.0 mi SSE 5.8 mph - N/A   Clear
1:50 AM 68.0 °F 50.0 °F 52% 29.83 in 10.0 mi SE 5.8 mph - N/A   Clear
2:10 AM 69.8 °F 50.0 °F 49% 29.83 in 10.0 mi SSE 3.5 mph - N/A   Clear
2:30 AM 69.8 °F 50.0 °F 49% 29.83 in 10.0 mi SSE 3.5 mph - N/A   Clear
2:50 AM 69.8 °F 48.2 °F 46% 29.83 in 10.0 mi SE 4.6 mph - N/A   Clear
3:10 AM 68.0 °F 48.2 °F 49% 29.83 in 10.0 mi SE 3.5 mph - N/A   Clear
3:30 AM 68.0 °F 48.2 °F 49% 29.83 in 10.0 mi SE 3.5 mph - N/A   Clear
3:50 AM 68.0 °F 48.2 °F 49% 29.83 in 10.0 mi SE 4.6 mph - N/A   Clear
4:10 AM 66.2 °F 48.2 °F 52% 29.83 in 10.0 mi SSE 4.6 mph - N/A   Clear
4:30 AM 66.2 °F 50.0 °F 56% 29.83 in 10.0 mi SSW 4.6 mph - N/A   Clear
4:50 AM 66.2 °F 50.0 °F 56% 29.83 in 10.0 mi South 3.5 mph - N/A   Clear
5:10 AM 66.2 °F 50.0 °F 56% 29.83 in 10.0 mi Calm Calm - N/A   Clear
5:30 AM 66.2 °F 50.0 °F 56% 29.83 in 10.0 mi Calm Calm - N/A   Clear
5:50 AM 66.2 °F 50.0 °F 56% 29.83 in 10.0 mi Calm Calm - N/A   Clear
6:10 AM 62.6 °F 48.2 °F 59% 29.84 in 10.0 mi Calm Calm - N/A   Clear
6:30 AM 60.8 °F 48.2 °F 63% 29.84 in 10.0 mi North 4.6 mph - N/A   Clear
6:50 AM 59.0 °F 48.2 °F 67% 29.85 in 10.0 mi North 8.1 mph - N/A   Clear
7:10 AM 59.0 °F 50.0 °F 72% 29.85 in 10.0 mi NNE 4.6 mph - N/A   Clear
7:30 AM 62.6 °F 50.0 °F 63% 29.85 in 10.0 mi North 5.8 mph - N/A   Clear
7:50 AM 66.2 °F 50.0 °F 56% 29.85 in 10.0 mi North 4.6 mph - N/A   Clear
8:10 AM 68.0 °F 50.0 °F 52% 29.86 in 10.0 mi North 5.8 mph - N/A   Clear
8:30 AM 71.6 °F 50.0 °F 46% 29.85 in 10.0 mi North 4.6 mph - N/A   Clear
8:50 AM 73.4 °F 50.0 °F 44% 29.86 in 10.0 mi NNW 6.9 mph - N/A   Clear
9:10 AM 75.2 °F 48.2 °F 38% 29.86 in 10.0 mi North 6.9 mph - N/A   Clear
9:30 AM 80.6 °F 48.2 °F 32% 29.85 in 10.0 mi NW 8.1 mph - N/A   Clear
9:50 AM 80.6 °F 44.6 °F 28% 29.86 in 10.0 mi NNW 9.2 mph - N/A   Clear
10:10 AM 82.4 °F 44.6 °F 26% 29.85 in 10.0 mi NNW 10.4 mph - N/A   Clear
10:30 AM 84.2 °F 46.4 °F 27% 29.85 in 10.0 mi NNW 8.1 mph - N/A   Clear
10:50 AM 86.0 °F 46.4 °F 25% 29.85 in 10.0 mi NW 9.2 mph - N/A   Clear
11:10 AM 86.0 °F 44.6 °F 23% 29.85 in 10.0 mi NW 9.2 mph - N/A   Clear
11:30 AM 87.8 °F 44.6 °F 22% 29.84 in 10.0 mi NW 9.2 mph - N/A   Clear
11:50 AM 89.6 °F 48.2 °F 24% 29.83 in 9.0 mi NW 8.1 mph - N/A   Clear
12:10 PM 89.6 °F 50.0 °F 26% 29.83 in 8.0 mi WNW 8.1 mph - N/A   Clear
12:30 PM 91.4 °F 50.0 °F 24% 29.82 in 10.0 mi WNW 8.1 mph - N/A   Clear
12:50 PM 91.4 °F 50.0 °F 24% 29.82 in 8.0 mi West 8.1 mph - N/A   Clear
1:10 PM 91.4 °F 48.2 °F 23% 29.81 in 10.0 mi NW 6.9 mph 16.1 mph N/A   Clear
1:30 PM 93.2 °F 46.4 °F 20% 29.80 in 9.0 mi NW 8.1 mph - N/A   Clear
1:50 PM 93.2 °F 44.6 °F 19% 29.80 in 9.0 mi NW 9.2 mph - N/A   Clear
2:10 PM 95.0 °F 46.4 °F 19% 29.79 in 10.0 mi NW 11.5 mph - N/A   Clear
2:30 PM 95.0 °F 41.0 °F 15% 29.78 in 10.0 mi NW 9.2 mph - N/A   Clear
2:50 PM 95.0 °F 39.2 °F 14% 29.78 in 10.0 mi NNW 10.4 mph - N/A   Clear
3:10 PM 95.0 °F 41.0 °F 15% 29.77 in 10.0 mi NNW 11.5 mph - N/A   Clear
3:30 PM 95.0 °F 41.0 °F 15% 29.76 in 10.0 mi NW 9.2 mph - N/A   Clear
3:50 PM 96.8 °F 39.2 °F 14% 29.75 in 9.0 mi WNW 8.1 mph - N/A   Clear
4:10 PM 96.8 °F 37.4 °F 13% 29.75 in 10.0 mi West 9.2 mph - N/A   Clear
4:30 PM 96.8 °F 39.2 °F 14% 29.74 in 10.0 mi WNW 6.9 mph - N/A   Clear
4:50 PM 98.6 °F 37.4 °F 12% 29.74 in 10.0 mi NW 6.9 mph - N/A   Clear
5:10 PM 98.6 °F 35.6 °F 11% 29.73 in 10.0 mi West 8.1 mph - N/A   Clear
5:30 PM 98.6 °F 33.8 °F 10% 29.72 in 10.0 mi WNW 6.9 mph - N/A   Clear
5:50 PM 98.6 °F 32.0 °F 10% 29.72 in 10.0 mi WNW 5.8 mph - N/A   Clear
6:10 PM 98.6 °F 33.8 °F 10% 29.72 in 10.0 mi WNW 4.6 mph - N/A   Clear
6:30 PM 96.8 °F 32.0 °F 10% 29.71 in 10.0 mi WNW 4.6 mph - N/A   Clear
6:50 PM 95.0 °F 35.6 °F 12% 29.71 in 10.0 mi NNW 3.5 mph - N/A   Clear
7:10 PM 93.2 °F 33.8 °F 12% 29.71 in 10.0 mi NW 4.6 mph - N/A   Clear
7:30 PM 91.4 °F 32.0 °F 12% 29.71 in 10.0 mi NW 4.6 mph - N/A   Clear
7:50 PM 89.6 °F 32.0 °F 13% 29.71 in 10.0 mi Calm Calm - N/A   Clear
8:10 PM 86.0 °F 33.8 °F 15% 29.72 in 10.0 mi Calm Calm - N/A   Clear
8:30 PM 86.0 °F 33.8 °F 15% 29.72 in 10.0 mi Calm Calm - N/A   Clear
8:50 PM 82.4 °F 35.6 °F 19% 29.73 in 10.0 mi ENE 3.5 mph - N/A   Clear
9:10 PM 82.4 °F 35.6 °F 19% 29.73 in 10.0 mi SSW 4.6 mph - N/A   Clear
9:30 PM 82.4 °F 42.8 °F 25% 29.74 in 10.0 mi Calm Calm - N/A   Clear
9:50 PM 80.6 °F 39.2 °F 23% 29.74 in 10.0 mi Calm Calm - N/A   Clear
10:10 PM 77.0 °F 39.2 °F 26% 29.74 in 10.0 mi North 3.5 mph - N/A   Clear
10:30 PM 77.0 °F 41.0 °F 28% 29.74 in 10.0 mi Calm Calm - N/A   Clear
10:50 PM 75.2 °F 41.0 °F 29% 29.74 in 10.0 mi Calm Calm - N/A   Clear
11:10 PM 75.2 °F 41.0 °F 29% 29.75 in 10.0 mi NE 3.5 mph - N/A   Clear
11:30 PM 75.2 °F 42.8 °F 31% 29.75 in 10.0 mi Calm Calm - N/A   Clear
11:50 PM 77.0 °F 46.4 °F 34% 29.74 in 10.0 mi East 4.6 mph - N/A   Clear